Regional Weather Roundup
Issued by NWS Little Rock, AR

Home | Current Version | Previous Version | Graphics & Text | Print | Product List | Glossary On
Versions: 1 2 3 4 5 6 7 8 9 10 11 12 13 14 15 16 17 18 19 20 21 22 23 24 25 26 27 28 29 30 31 32 33 34 35 36 37 38 39 40 41 42 43 44 45 46 47 48 49 50
000
ASUS44 KLZK 272105
RWRLZK

WEATHER ROUNDUP FOR ARKANSAS
NATIONAL WEATHER SERVICE LITTLE ROCK AR
300 PM CST TUE JAN 27 2015

NOTE: "FAIR" INDICATES FEW OR NO CLOUDS BELOW 12,000 FEET WITH NO
SIGNIFICANT WEATHER AND/OR OBSTRUCTIONS TO VISIBILITY.

ARZ001-003-010-029-272200-
NORTHWEST ARKANSAS

CITY           SKY/WX    TMP DP  RH WIND       PRES   REMARKS
FAYETTEVILLE   SUNNY     66  25  21 CALM      30.12S
FORT SMITH     SUNNY     71  24  17 W6        30.11F
HARRISON       SUNNY     62  26  25 CALM      30.11F
BENTONVILLE    SUNNY     64  25  22 W3        30.13S
ROGERS         SUNNY     64  25  22 SW5       30.12S
SILOAM SPGS    SUNNY     66  28  24 CALM      30.13S
HIGHFILL       SUNNY     65  23  20 CALM      30.11S
SPRINGDALE     SUNNY     64  23  20 CALM      30.13F
$$

ARZ004-005-016-272200-
NORTH CENTRAL ARKANSAS

CITY           SKY/WX    TMP DP  RH WIND       PRES   REMARKS
BATESVILLE     SUNNY     61  34  36 SW3       30.12S
FLIPPIN        SUNNY     61  30  31 NE6       30.11S
MTN HOME       SUNNY     58  31  35 VRB5      30.10F
$$

ARZ040-041-272200-
WEST CENTRAL ARKANSAS

CITY           SKY/WX    TMP DP  RH WIND       PRES   REMARKS
MENA           SUNNY     73  25  16 E3        30.11S
MOUNT IDA      SUNNY     73  29  19 VRB3      30.08F
$$

ARZ009-017-025-026-028-272200-
NORTHEAST ARKANSAS

CITY           SKY/WX    TMP DP  RH WIND       PRES   REMARKS
CORNING        FAIR      54  37  54 SE3       30.14S HAZE
JONESBORO      SUNNY     52  36  54 VRB7      30.13R
NEWPORT        SUNNY     55  38  52 NE6       30.15R
WALNUT RIDGE   SUNNY     54  36  50 E3        30.13S
BLYTHEVILLE    MOSUNNY   54  38  54 N10       30.15R
$$

ARZ022-023-033-042-044-272200-
CENTRAL ARKANSAS

CITY           SKY/WX    TMP DP  RH WIND       PRES   REMARKS
LITTLE ROCK    SUNNY     67  29  24 CALM      30.12S
N LITTLE ROCK  SUNNY     64  37  36 NW7       30.12S
JACKSONVILLE   SUNNY     66  32  28 W3        30.11S
SEARCY         SUNNY     62  32  32 NE3       30.13S
HOT SPRINGS    SUNNY     71  32  23 VRB5      30.10F
RUSSELLVILLE   SUNNY     68  31  25 W5        30.10F
CLINTON        FAIR      66  28  24 W5        30.11F
$$

ARZ036-272200-
EAST ARKANSAS

CITY           SKY/WX    TMP DP  RH WIND       PRES   REMARKS
WEST MEMPHIS   SUNNY     54  38  54 NE10      30.13R
$$

ARZ050-053-066-070-073-272200-
SOUTHWEST ARKANSAS

CITY           SKY/WX    TMP DP  RH WIND       PRES   REMARKS
ARKADELPHIA    FAIR      71  38  30 S6        30.11F
CAMDEN         SUNNY     73  32  21 CALM      30.11F
TEXARKANA      SUNNY     74  24  15 CALM      30.11S
EL DORADO      SUNNY     71  32  23 NW6       30.12S
DE QUEEN       SUNNY     74  34  23 SW6       30.08F
$$

ARZ056-057-069-272200-
SOUTHEAST ARKANSAS

CITY           SKY/WX    TMP DP  RH WIND       PRES   REMARKS
PINE BLUFF     SUNNY     61  34  36 NE5       30.13S
STUTTGART      SUNNY     61  36  39 N6        30.14R
MONTICELLO     LGT RAIN  67  33  28 N5        30.11S

$$





USA.gov is the U.S. government's official web portal to all federal, state and local government web resources and services.